趙彗星

P/2007 S1 ( Zhao )

English version
Home page
Total 6,336 html files since Dec. 4, 1995
Updated on April 3, 2008

---------------------------------------------------------------------

・ プロフィール

発見日 2007年9月17日
発見光度 18.2等
発見者 趙海濱 (紫金山天文台)

・ 軌道要素

T 2007 Dec. 6.7033 TT                                   MPC
q   2.494380             (2000.0)            P               Q
n   0.1331371      Peri.  245.3891      +0.8878987      -0.4554795
a   3.798423       Node   141.6164      +0.4506868      +0.8330536
e   0.343312       Incl.    5.9725      +0.0922890      +0.3139429
P   7.40
From 68 observations 2007 Sept. 8-Oct. 16.

・ 光度変化

        m1 = 13.0 + 5 logΔ + 10.0 log r

---------------------------------------------------------------------

軌道要素はM.P.E.C. 2007-U64に掲載されたものです。
光度グラフはComet for Windowsで作成したものです。

---------------------------------------------------------------------

Copyright(C) 1995-2008 Seiichi Yoshida (comet@aerith.net). All rights reserved.